Location: Oberwangen
(47.4286°N, 8.9679°E)
Time: 15:32:03
(UTC+00:00)

NOSS 2-3 (C) - Pass Details

Date: 20 June 2021
Orbit: 555 x 1656 km, 63.4° (Epoch: 28 July)

Event Time Altitude Azimuth Distance (km) Brightness Sun altitude
Exits shadow 23:07:28 40° 142° (SE) 887 3.9 -19.0°
Maximum altitude 23:08:01 42° 120° (ESE) 866 4.0 -19.0°
Drops below altitude 10° 23:12:26 10° 50° (NE) 2,141 6.8 -19.1°
Sets 23:15:06 0° 44° (NE) 3,207 7.9 -19.1°
